NI4CE-10 Weather Reports


Display with metric or nautical units.
time (UTC)temp
F
wind
direction
speed
MPH
gust
MPH
rain 1hr
in
rain 24hr
in
rain mn
in
humidity
%
barometer
mb
20260505060607 68 63 1.0 4.0 0.00 0.00 0.00 100 1017.4
20260505060550 68 88 1.0 3.0 0.00 0.00 0.00 100 1017.5
20260505060050 68 63 1.0 4.0 0.00 0.00 0.00 100 1017.4
20260505055550 68 71 3.0 4.0 0.00 0.00 0.00 100 1017.4
20260505055459 68 47 1.0 6.0 0.00 0.00 0.00 100 1017.3
20260505055050 68 47 1.0 6.0 0.00 0.00 0.00 100 1017.3
20260505054550 68 67 2.0 4.0 0.00 0.00 0.00 100 1017.5
20260505054050 68 28 0.0 5.0 0.00 0.00 0.00 100 1017.5
20260505053550 68 80 1.0 3.0 0.00 0.00 0.00 100 1017.8
20260505053135 68 112 1.0 4.0 0.00 0.00 0.00 100 1017.7
20260505053050 68 88 0.0 3.0 0.00 0.00 0.00 100 1017.7
20260505052550 68 112 1.0 4.0 0.00 0.00 0.00 100 1017.7
20260505052312 67 47 1.0 2.0 0.00 0.00 0.00 100 1017.8
20260505052050 68 40 0.0 3.0 0.00 0.00 0.00 100 1017.8
20260505051550 67 47 1.0 2.0 0.00 0.00 0.00 100 1017.8
20260505051506 67 1 0.0 3.0 0.00 0.00 0.00 100 1017.7
20260505051050 67 1 0.0 3.0 0.00 0.00 0.00 100 1017.7
20260505050704 67 64 2.0 4.0 0.00 0.00 0.00 100 1017.7
20260505050550 67 64 2.0 4.0 0.00 0.00 0.00 100 1017.7
20260505050439 67 71 3.0 3.0 0.00 0.00 0.00 100 1017.9
20260505041724 68 111 3.0 3.0 0.00 0.00 0.00 100 1017.9
20260505041550 68 85 0.0 3.0 0.00 0.00 0.00 100 1018.0
20260505041050 68 111 3.0 3.0 0.00 0.00 0.00 100 1017.9
20260505041038 68 81 1.0 2.0 0.00 0.00 0.00 100 1018.1
20260505040550 68 81 1.0 2.0 0.00 0.00 0.00 100 1018.1
20260505040050 68 87 1.0 3.0 0.00 0.00 0.00 100 1018.0
20260505035956 68 59 1.0 3.0 0.00 0.00 0.00 100 1018.0
20260505035708 68 59 1.0 3.0 0.00 0.00 0.00 100 1018.0
20260505035550 68 59 1.0 3.0 0.00 0.00 0.00 100 1018.0
20260505035050 69 102 1.0 3.0 0.00 0.00 0.00 100 1018.0
20260505034734 69 81 2.0 4.0 0.00 0.00 0.00 100 1018.1
20260505034550 69 81 2.0 4.0 0.00 0.00 0.00 100 1018.1
20260505034307 69 104 3.0 4.0 0.00 0.00 0.00 100 1018.2
20260505034050 69 75 2.0 3.0 0.00 0.00 0.00 100 1018.2
20260505033634 69 82 3.0 4.0 0.00 0.00 0.00 100 1018.2
20260505033550 69 104 3.0 4.0 0.00 0.00 0.00 100 1018.2
20260505033504 69 81 1.0 4.0 0.00 0.00 0.00 100 1018.2
20260505033050 69 82 3.0 4.0 0.00 0.00 0.00 100 1018.2
20260505033015 69 81 1.0 4.0 0.00 0.00 0.00 100 1018.2
20260505032550 69 81 1.0 4.0 0.00 0.00 0.00 100 1018.2
20260505032305 70 78 1.0 3.0 0.00 0.00 0.00 100 1018.2
20260505032050 70 78 1.0 3.0 0.00 0.00 0.00 100 1018.2
20260505031737 70 43 2.0 3.0 0.00 0.00 0.00 100 1018.4
20260505031550 70 91 2.0 3.0 0.00 0.00 0.00 100 1018.2
20260505031458 70 43 2.0 3.0 0.00 0.00 0.00 100 1018.4
20260505031050 70 43 2.0 3.0 0.00 0.00 0.00 100 1018.4
20260505030841 71 126 2.0 5.0 0.00 0.00 0.00 100 1018.3
20260505030708 71 101 2.0 6.0 0.00 0.00 0.00 100 1018.3
20260505030550 70 81 0.0 4.0 0.00 0.00 0.00 100 1018.4
20260505030050 71 126 2.0 5.0 0.00 0.00 0.00 100 1018.3
20260505025551 71 95 3.0 5.0 0.00 0.00 0.00 100 1018.3
20260505025051 71 101 2.0 6.0 0.00 0.00 0.00 100 1018.3
20260505024551 71 60 4.0 8.0 0.00 0.00 0.00 100 1018.1
20260505024227 71 130 3.0 8.0 0.00 0.00 0.00 100 1018.0
20260505024051 71 130 3.0 8.0 0.00 0.00 0.00 100 1018.0
20260505023551 71 119 5.0 8.0 0.00 0.00 0.00 100 1018.0
20260505023457 72 102 4.0 7.0 0.00 0.00 0.00 100 1018.0
20260505023051 72 102 4.0 7.0 0.00 0.00 0.00 100 1018.0
20260505022551 71 105 2.0 6.0 0.00 0.00 0.00 100 1018.0
20260505022051 72 56 3.0 8.0 0.00 0.00 0.00 100 1018.0
20260505022008 72 67 4.0 7.0 0.00 0.00 0.00 100 1017.9
20260505021551 72 67 4.0 7.0 0.00 0.00 0.00 100 1017.9
20260505021051 72 98 4.0 7.0 0.00 0.00 0.00 100 1017.9
20260505021008 72 66 5.0 8.0 0.00 0.00 0.00 100 1017.9
20260505020551 72 66 5.0 8.0 0.00 0.00 0.00 100 1017.9
20260505020051 73 80 7.0 9.0 0.00 0.00 0.00 100 1017.8
20260505015912 73 97 5.0 9.0 0.00 0.00 0.00 100 1018.0
20260505015722 73 118 3.0 7.0 0.00 0.00 0.00 100 1017.9
20260505015551 73 97 5.0 9.0 0.00 0.00 0.00 100 1018.0
20260505015051 73 118 3.0 7.0 0.00 0.00 0.00 100 1017.9
20260505015008 73 115 5.0 9.0 0.00 0.00 0.00 100 1017.9
20260505014740 73 104 4.0 8.0 0.00 0.00 0.00 100 1017.8
20260505014551 73 115 5.0 9.0 0.00 0.00 0.00 100 1017.9
20260505014051 73 104 4.0 8.0 0.00 0.00 0.00 100 1017.8
20260505013935 74 94 4.0 7.0 0.00 0.00 0.00 100 1017.6
20260505013557 73 71 5.0 11.0 0.00 0.00 0.00 100 1017.4
20260505013551 74 94 4.0 7.0 0.00 0.00 0.00 100 1017.6
20260505013220 73 71 5.0 11.0 0.00 0.00 0.00 100 1017.4
20260505013217 73 85 4.0 8.0 0.00 0.00 0.00 100 1017.6
20260505013051 73 71 5.0 11.0 0.00 0.00 0.00 100 1017.4
20260505012551 73 85 4.0 8.0 0.00 0.00 0.00 100 1017.6
20260505012051 73 57 2.0 8.0 0.00 0.00 0.00 100 1017.7
20260505012012 74 108 3.0 8.0 0.00 0.00 0.00 100 1017.6
20260505011551 74 108 3.0 8.0 0.00 0.00 0.00 100 1017.6
20260505011137 74 118 6.0 8.0 0.00 0.00 0.00 100 1017.3
20260505011051 74 81 6.0 8.0 0.00 0.00 0.00 100 1017.4
20260505010551 74 118 6.0 8.0 0.00 0.00 0.00 100 1017.3
20260505010051 74 88 5.0 7.0 0.00 0.00 0.00 100 1017.3
20260505005551 74 115 4.0 10.0 0.00 0.00 0.00 100 1017.3
20260505005138 75 88 7.0 10.0 0.00 0.00 0.00 100 1017.3
20260505005051 75 91 5.0 9.0 0.00 0.00 0.00 100 1017.2
20260505004551 75 88 7.0 10.0 0.00 0.00 0.00 100 1017.3
20260505004051 75 119 3.0 11.0 0.00 0.00 0.00 100 1017.1
20260505003948 76 102 5.0 10.0 0.00 0.00 0.00 100 1017.1
20260505003551 76 126 6.0 11.0 0.00 0.00 0.00 100 1017.2
20260505003051 76 102 5.0 10.0 0.00 0.00 0.00 100 1017.1
20260505002551 76 111 7.0 10.0 0.00 0.00 0.00 100 1017.1
20260505002051 76 116 3.0 13.0 0.00 0.00 0.00 100 1017.1
20260505002049 77 119 5.0 9.0 0.00 0.00 0.00 100 1016.9
20260505001551 77 119 5.0 9.0 0.00 0.00 0.00 100 1016.9
20260505001459 76 59 4.0 14.0 0.00 0.00 0.00 100 1016.5
20260505001051 76 105 6.0 11.0 0.00 0.00 0.00 100 1016.7
20260505000551 76 59 4.0 14.0 0.00 0.00 0.00 100 1016.5
20260505000051 77 91 9.0 11.0 0.00 0.00 0.00 100 1016.3
20260505000011 77 116 8.0 10.0 0.00 0.00 0.00 100 1016.3
20260504235604 77 105 6.0 12.0 0.00 0.00 0.00 100 1016.3
20260504235551 77 116 8.0 10.0 0.00 0.00 0.00 100 1016.3
20260504235051 77 105 6.0 12.0 0.00 0.00 0.00 100 1016.3
20260504234944 78 91 9.0 10.0 0.00 0.00 0.00 100 1015.9
20260504234551 77 95 6.0 10.0 0.00 0.00 0.00 100 1016.2
20260504234051 78 57 3.0 9.0 0.00 0.00 0.00 100 1016.2
20260504233551 78 109 7.0 10.0 0.00 0.00 0.00 100 1016.0
20260504233051 78 91 9.0 10.0 0.00 0.00 0.00 100 1015.9
20260504233046 80 91 8.0 12.0 0.00 0.00 0.00 100 1015.9
20260504232600 79 92 6.0 10.0 0.00 0.00 0.00 100 1016.0
20260504232551 79 147 5.0 10.0 0.00 0.00 0.00 100 1015.9
20260504232051 79 92 6.0 10.0 0.00 0.00 0.00 100 1016.0
20260504231551 79 95 3.0 10.0 0.00 0.00 0.00 100 1015.9
20260504231456 79 136 4.0 9.0 0.00 0.00 0.00 100 1016.0
20260504231051 79 136 4.0 9.0 0.00 0.00 0.00 100 1016.0
20260504230552 80 91 8.0 12.0 0.00 0.00 0.00 100 1015.9
20260504230426 79 140 8.0 12.0 0.00 0.00 0.00 100 1015.8
20260504230052 79 140 8.0 12.0 0.00 0.00 0.00 100 1015.8
20260504230046 81 119 6.0 11.0 0.00 0.00 0.00 100 1015.6
20260504225552 80 120 4.0 12.0 0.00 0.00 0.00 100 1015.5
20260504225052 81 119 6.0 11.0 0.00 0.00 0.00 100 1015.6
20260504224812 81 78 7.0 15.0 0.00 0.00 0.00 100 1015.6
20260504224552 81 78 7.0 15.0 0.00 0.00 0.00 100 1015.6
20260504224052 82 122 6.0 9.0 0.00 0.00 0.00 100 1015.8
20260504223552 82 94 4.0 11.0 0.00 0.00 0.00 100 1015.8
20260504223337 82 97 6.0 13.0 0.00 0.00 0.00 100 1015.8
20260504223052 82 97 6.0 13.0 0.00 0.00 0.00 100 1015.8
20260504222553 83 90 4.0 15.0 0.00 0.00 0.00 100 1015.7
20260504222129 83 90 4.0 15.0 0.00 0.00 0.00 100 1015.7
20260504222052 83 90 4.0 15.0 0.00 0.00 0.00 100 1015.7
20260504221934 82 102 8.0 12.0 0.00 0.00 0.00 100 1015.8
20260504221552 82 102 8.0 12.0 0.00 0.00 0.00 100 1015.8
20260504221052 83 143 6.0 9.0 0.00 0.00 0.00 100 1015.7
20260504220714 83 74 5.0 11.0 0.00 0.00 0.00 100 1015.8
20260504220552 83 74 5.0 11.0 0.00 0.00 0.00 100 1015.8
20260504220315 83 40 1.0 9.0 0.00 0.00 0.00 100 1015.8
20260504220052 83 40 1.0 9.0 0.00 0.00 0.00 100 1015.8
20260504215654 83 74 8.0 11.0 0.00 0.00 0.00 100 1015.8
20260504215552 83 74 8.0 11.0 0.00 0.00 0.00 100 1015.8
20260504215412 84 15 9.0 12.0 0.00 0.00 0.00 100 1015.6
20260504215137 84 15 9.0 12.0 0.00 0.00 0.00 100 1015.6
20260504215052 84 15 9.0 12.0 0.00 0.00 0.00 100 1015.6
20260504214552 84 97 7.0 13.0 0.00 0.00 0.00 100 1015.7
20260504214052 84 87 11.0 18.0 0.00 0.00 0.00 100 1015.8
20260504213820 84 102 9.0 11.0 0.00 0.00 0.00 100 1015.7
20260504213552 84 102 9.0 11.0 0.00 0.00 0.00 100 1015.7
20260504213244 84 95 7.0 9.0 0.00 0.00 0.00 100 1015.7
20260504213052 85 81 7.0 9.0 0.00 0.00 0.00 100 1015.7
20260504212552 84 95 7.0 9.0 0.00 0.00 0.00 100 1015.7
20260504212530 84 101 3.0 8.0 0.00 0.00 0.00 100 1015.8
20260504212052 84 156 3.0 5.0 0.00 0.00 0.00 100 1015.7
20260504211552 84 163 4.0 6.0 0.00 0.00 0.00 100 1015.8
20260504211320 84 101 3.0 8.0 0.00 0.00 0.00 100 1015.8
20260504211052 84 101 3.0 8.0 0.00 0.00 0.00 100 1015.8
20260504210958 84 101 6.0 9.0 0.00 0.00 0.00 100 1015.7
20260504210726 84 101 6.0 9.0 0.00 0.00 0.00 100 1015.7
20260504210552 84 101 6.0 9.0 0.00 0.00 0.00 100 1015.7
20260504210052 83 99 8.0 10.0 0.00 0.00 0.00 100 1015.9
20260504205841 83 102 7.0 11.0 0.00 0.00 0.00 100 1015.8
20260504205552 83 102 7.0 11.0 0.00 0.00 0.00 100 1015.8
20260504205052 83 97 9.0 14.0 0.00 0.00 0.00 100 1015.8
20260504204552 85 70 12.0 15.0 0.00 0.00 0.00 100 1015.8
20260504204207 85 140 4.0 7.0 0.00 0.00 0.00 100 1015.9
20260504204052 85 140 4.0 7.0 0.00 0.00 0.00 100 1015.9
20260504203943 84 137 2.0 10.0 0.00 0.00 0.00 100 1016.0
20260504203552 83 119 0.0 8.0 0.00 0.00 0.00 100 1015.9
20260504203052 83 52 5.0 10.0 0.00 0.00 0.00 100 1016.0
20260504202825 84 61 7.0 12.0 0.00 0.00 0.00 100 1016.0
20260504202552 84 61 7.0 12.0 0.00 0.00 0.00 100 1016.0
20260504202304 85 95 4.0 12.0 0.00 0.00 0.00 100 1016.1
20260504202052 85 95 4.0 12.0 0.00 0.00 0.00 100 1016.1
20260504201552 84 64 8.0 16.0 0.00 0.00 0.00 100 1016.0
20260504201341 84 137 2.0 10.0 0.00 0.00 0.00 100 1016.0
20260504201052 84 137 2.0 10.0 0.00 0.00 0.00 100 1016.0
20260504201015 85 112 5.0 10.0 0.00 0.00 0.00 100 1016.8
20260504201008 86 146 4.0 7.0 0.00 0.00 0.00 100 1016.1
20260504200552 86 146 4.0 7.0 0.00 0.00 0.00 100 1016.1
20260504200052 83 71 4.0 9.0 0.00 0.00 0.00 100 1016.2
20260504195552 83 104 3.0 11.0 0.00 0.00 0.00 100 1016.3
20260504195052 82 56 2.0 10.0 0.00 0.00 0.00 100 1016.4
20260504194858 82 78 7.0 13.0 0.00 0.00 0.00 100 1016.4
20260504194552 82 78 7.0 13.0 0.00 0.00 0.00 100 1016.4
20260504194052 85 87 7.0 11.0 0.00 0.00 0.00 100 1016.4
20260504193850 85 7 5.0 10.0 0.00 0.00 0.00 100 1016.4
20260504193552 85 7 5.0 10.0 0.00 0.00 0.00 100 1016.4
20260504193507 83 170 6.0 12.0 0.00 0.00 0.00 100 1016.3
20260504193052 83 170 6.0 12.0 0.00 0.00 0.00 100 1016.3
20260504192939 83 122 7.0 12.0 0.00 0.00 0.00 100 1016.5
20260504192552 83 122 7.0 12.0 0.00 0.00 0.00 100 1016.5
20260504192226 85 67 6.0 10.0 0.00 0.00 0.00 100 1016.5
20260504192052 85 67 6.0 10.0 0.00 0.00 0.00 100 1016.5
20260504191552 84 119 3.0 8.0 0.00 0.00 0.00 100 1016.6
20260504191052 84 120 6.0 11.0 0.00 0.00 0.00 100 1016.7
20260504190835 85 112 5.0 10.0 0.00 0.00 0.00 100 1016.8
20260504190553 85 112 5.0 10.0 0.00 0.00 0.00 100 1016.8
20260504190313 84 49 5.0 13.0 0.00 0.00 0.00 100 1016.9
20260504190053 84 49 5.0 13.0 0.00 0.00 0.00 100 1016.9
20260504185821 85 144 6.0 9.0 0.00 0.00 0.00 100 1017.0
20260504185553 85 144 6.0 9.0 0.00 0.00 0.00 100 1017.0
20260504185331 83 137 6.0 12.0 0.00 0.00 0.00 100 1017.1
20260504185053 83 137 6.0 12.0 0.00 0.00 0.00 100 1017.1
20260504184725 84 113 10.0 13.0 0.00 0.00 0.00 100 1017.2
20260504184553 84 113 10.0 13.0 0.00 0.00 0.00 100 1017.2
20260504184053 85 142 5.0 9.0 0.00 0.00 0.00 100 1017.2
20260504184004 84 99 7.0 14.0 0.00 0.00 0.00 100 1017.3
20260504183553 84 99 7.0 14.0 0.00 0.00 0.00 100 1017.3
20260504183313 84 67 1.0 8.0 0.00 0.00 0.00 100 1017.4
20260504183053 84 67 1.0 8.0 0.00 0.00 0.00 100 1017.4
20260504182553 84 142 4.0 14.0 0.00 0.00 0.00 100 1017.6
20260504182511 83 99 6.0 10.0 0.00 0.00 0.00 100 1017.7
20260504182242 83 99 6.0 10.0 0.00 0.00 0.00 100 1017.7
20260504182053 83 99 6.0 10.0 0.00 0.00 0.00 100 1017.7
20260504181553 83 81 5.0 10.0 0.00 0.00 0.00 100 1017.7
20260504181502 84 5 1.0 11.0 0.00 0.00 0.00 100 1017.7
20260504181053 84 5 1.0 11.0 0.00 0.00 0.00 100 1017.7
20260504180553 85 116 5.0 15.0 0.00 0.00 0.00 100 1017.7
20260504180541 84 120 2.0 11.0 0.00 0.00 0.00 100 1017.8
20260504180053 84 120 2.0 11.0 0.00 0.00 0.00 100 1017.8
20260504175815 84 88 6.0 12.0 0.00 0.00 0.00 100 1017.9
20260504175553 84 88 6.0 12.0 0.00 0.00 0.00 100 1017.9
20260504175121 81 23 8.0 14.0 0.00 0.00 0.00 100 1018.2
20260504175053 83 172 2.0 8.0 0.00 0.00 0.00 100 1017.9
20260504175000 83 75 7.0 11.0 0.00 0.00 0.00 100 1018.0
20260504174553 83 75 7.0 11.0 0.00 0.00 0.00 100 1018.0
20260504174053 83 60 7.0 13.0 0.00 0.00 0.00 100 1018.1
20260504173818 83 64 7.0 16.0 0.00 0.00 0.00 100 1018.1
20260504173553 83 64 7.0 16.0 0.00 0.00 0.00 100 1018.1
20260504173447 81 23 8.0 14.0 0.00 0.00 0.00 100 1018.2
20260504173053 81 23 8.0 14.0 0.00 0.00 0.00 100 1018.2
20260504172553 83 39 8.0 16.0 0.00 0.00 0.00 100 1018.1
20260504172053 83 70 5.0 16.0 0.00 0.00 0.00 100 1018.3
20260504171553 84 104 6.0 13.0 0.00 0.00 0.00 100 1018.4
20260504171059 82 102 5.0 13.0 0.00 0.00 0.00 100 1018.5
20260504171053 84 68 3.0 13.0 0.00 0.00 0.00 100 1018.3
20260504171016 83 63 10.0 13.0 0.00 0.00 0.00 100 1018.4
20260504170802 82 102 5.0 13.0 0.00 0.00 0.00 100 1018.5
20260504170553 83 63 10.0 13.0 0.00 0.00 0.00 100 1018.4
20260504160404 81 97 7.0 18.0 0.00 0.00 0.00 100 1019.1
20260504151053 80 75 4.0 13.0 0.00 0.00 0.00 100 1019.2
20260504150554 79 66 8.0 15.0 0.00 0.00 0.00 100 1019.2
20260504141054 78 7 9.0 14.0 0.00 0.00 0.00 100 1019.0
20260504140655 77 81 12.0 15.0 0.00 0.00 0.00 100 1019.0
20260504140554 76 19 8.0 17.0 0.00 0.00 0.00 100 1019.0
20260504140134 76 68 8.0 16.0 0.00 0.00 0.00 100 1018.8
20260504130554 75 66 6.0 9.0 0.00 0.00 0.00 100 1018.5
20260504130525 72 47 4.0 11.0 0.00 0.00 0.00 100 1018.4
20260504130340 74 91 6.0 13.0 0.00 0.00 0.00 100 1018.4
20260504110655 65 43 2.0 7.0 0.00 0.00 0.00 100 1017.7
20260504110555 65 18 4.0 6.0 0.00 0.00 0.00 100 1017.8
20260504110439 65 46 4.0 9.0 0.00 0.00 0.00 100 1017.7
20260504100555 66 5 3.0 8.0 0.00 0.00 0.00 100 1017.3
20260504100215 66 50 4.0 6.0 0.00 0.00 0.00 100 1017.2
20260504081555 67 18 0.0 5.0 0.00 0.00 0.00 100 1017.2
20260504081509 67 32 1.0 5.0 0.00 0.00 0.00 100 1017.2
20260504081055 67 32 1.0 5.0 0.00 0.00 0.00 100 1017.2
20260504081011 67 25 4.0 6.0 0.00 0.00 0.00 100 1017.2
20260504080555 67 25 4.0 6.0 0.00 0.00 0.00 100 1017.2
20260504080510 67 29 0.0 6.0 0.00 0.00 0.00 100 1017.4